Home > Weather > Monheim am Rhein > Past weeks

Flag for Germany Past Weather in Monheim am Rhein, North Rhine-Westphalia, Germany — Yesterday and Last 2 Weeks

Now
75 °F

Partly sunny.


Feels Like: 77 °F
Forecast: 64 / 76 °F
Wind: 6 mph from Southwest

Location: Duesseldorf

Current Time: Jul 25, 2016 at 12:01:37 PM

Latest Report: Jul 25, 2016 at 11:20 AM


Visibility: N/A

Pressure: 30.09 "Hg

Humidity: 65%

Dew Point: 63 °F

Location of Monheim am RheinLocation

Past Weather in Monheim am Rhein — Graph

°F

Monheim am Rhein Temperature Yesterday

Maximum temperature yesterday: 82 °F (at 3:50 PM)
Minimum temperature yesterday: 59 °F (at 5:50 AM)
Average temperature yesterday: 71 °F

High & Low Weather Summary for the Past Weeks

 TemperatureHumidityPressure
High95 °F (Jul 20, 4:20 PM)100% (Jul 13, 3:50 AM)30.30 "Hg (Jul 13, 3:50 AM)
Low46 °F (Jul 14, 4:20 AM)30% (Jul 20, 2:50 PM)29.74 "Hg (Jul 10, 8:50 PM)
Average70 °F71%30.05 "Hg
* Reported Jul 10 11:20 AM — Jul 25 11:20 AM, Monheim am Rhein, Weather by CustomWeather, © 2016

Note: Actual official high and low records may vary slightly from our data, if they occured in-between our weather recording intervals... More about our weather records

Advertising

Monheim am Rhein Weather History for the Previous 24 Hours

Scroll right to see more
 ConditionsComfort  
Time TempWeatherWind HumidityBarometerVisibility
11:20 AM
Mon, Jul 25
75 °FPartly sunny.6 mph65%30.09 "HgN/A
10:20 AM73 °FPartly sunny.8 mph65%30.09 "HgN/A
9:50 AM72 °FPartly sunny.8 mph65%30.09 "HgN/A
9:20 AM72 °FPartly sunny.7 mph65%30.09 "HgN/A
8:50 AM70 °FSunny.6 mph73%30.09 "Hg10 mi
8:20 AM68 °FSunny.6 mph83%30.09 "Hg10 mi
7:50 AM68 °FSunny.6 mph83%30.09 "Hg10 mi
7:20 AM66 °FSunny.5 mph88%30.09 "Hg10 mi
6:50 AM66 °FSunny.6 mph88%30.09 "Hg10 mi
6:20 AM64 °FFog.3 mph94%30.09 "HgN/A
5:50 AM64 °FFog.3 mph94%30.09 "HgN/A
5:20 AM64 °FClear.2 mph94%30.09 "Hg10 mi
4:50 AM66 °FClear.3 mph88%30.09 "Hg10 mi
4:20 AM64 °FClear.3 mph94%30.07 "Hg10 mi
3:50 AM66 °FPartly cloudy.3 mph88%30.07 "HgN/A
3:20 AM64 °FPartly cloudy.1 mph94%30.07 "HgN/A
2:50 AM64 °FClear.1 mph94%30.09 "Hg10 mi
2:20 AM64 °FClear.1 mph94%30.07 "Hg10 mi
1:50 AM66 °FClear.1 mph88%30.07 "Hg10 mi
1:20 AM66 °FClear.1 mph94%30.09 "Hg10 mi
12:50 AM68 °FClear.No wind83%30.07 "Hg10 mi
12:20 AM66 °FClear.1 mph88%30.09 "Hg10 mi
11:50 PM
Sun, Jul 24
68 °FClear.No wind88%30.09 "Hg10 mi
11:20 PM68 °FPassing clouds.3 mph88%30.09 "HgN/A
10:50 PM70 °FPassing clouds.3 mph83%30.09 "HgN/A
10:20 PM70 °FSunny.3 mph83%30.07 "Hg10 mi
9:50 PM72 °FSunny.2 mph78%30.07 "Hg10 mi
9:20 PM75 °FSunny.2 mph65%30.07 "Hg10 mi
8:50 PM77 °FSunny.5 mph61%30.07 "Hg10 mi
8:20 PM79 °FSunny.3 mph58%30.07 "Hg10 mi
7:50 PM79 °FSunny.5 mph54%30.07 "Hg10 mi
7:20 PM81 °FScattered clouds.6 mph51%30.07 "HgN/A
6:50 PM81 °FScattered clouds.5 mph51%30.07 "HgN/A
6:20 PM81 °FScattered clouds.8 mph51%30.07 "HgN/A
5:50 PM82 °FScattered clouds.9 mph51%30.07 "HgN/A
5:20 PM82 °FPassing clouds.8 mph51%30.07 "HgN/A
4:50 PM82 °FPassing clouds.9 mph51%30.07 "HgN/A
4:20 PM82 °FPassing clouds.8 mph51%30.07 "HgN/A
3:50 PM82 °FPassing clouds.6 mph51%30.07 "HgN/A
3:20 PM81 °FPassing clouds.8 mph54%30.09 "HgN/A
2:50 PM81 °FPassing clouds.6 mph54%30.09 "HgN/A
2:20 PM79 °FScattered clouds.7 mph61%30.09 "Hg6 mi
1:50 PM79 °FPassing clouds.6 mph61%30.09 "Hg6 mi
1:20 PM77 °FPassing clouds.8 mph61%30.09 "Hg6 mi
12:50 PM79 °FPassing clouds.6 mph54%30.09 "HgN/A
12:20 PM77 °FPassing clouds.2 mph57%30.09 "HgN/A
Weather by CustomWeather, © 2016

See weather overviewHow to use our weather pages